Year,Month,Day,Hour,Minute,Value (Times are PST for temperature in C)
2016,06,27,00,00,15.80
2016,06,27,00,01,15.80
2016,06,27,00,02,15.80
2016,06,27,00,03,15.80
2016,06,27,00,04,15.80
2016,06,27,00,05,15.80
2016,06,27,00,06,15.80
2016,06,27,00,07,15.80
2016,06,27,00,08,15.80
2016,06,27,00,09,15.80
2016,06,27,00,10,15.70
2016,06,27,00,11,15.70
2016,06,27,00,12,15.70
2016,06,27,00,13,15.60
2016,06,27,00,14,15.60
2016,06,27,00,15,15.60
2016,06,27,00,16,15.60
2016,06,27,00,17,15.60
2016,06,27,00,18,15.60
2016,06,27,00,19,15.50
2016,06,27,00,20,15.50
2016,06,27,00,21,15.50
2016,06,27,00,22,15.50
2016,06,27,00,23,15.40
2016,06,27,00,24,15.40
2016,06,27,00,25,15.40
2016,06,27,00,26,15.40
2016,06,27,00,27,15.30
2016,06,27,00,28,15.30
2016,06,27,00,29,15.30
2016,06,27,00,30,15.30
2016,06,27,00,31,15.30
2016,06,27,00,32,15.30
2016,06,27,00,33,15.30
2016,06,27,00,34,15.30
2016,06,27,00,35,15.30
2016,06,27,00,36,15.30
2016,06,27,00,37,15.20
2016,06,27,00,38,15.20
2016,06,27,00,39,15.20
2016,06,27,00,40,15.20
2016,06,27,00,41,15.10
2016,06,27,00,42,15.10
2016,06,27,00,43,15.10
2016,06,27,00,44,15.00
2016,06,27,00,45,15.00
2016,06,27,00,46,15.00
2016,06,27,00,47,14.90
2016,06,27,00,48,14.90
2016,06,27,00,49,14.90
2016,06,27,00,50,14.80
2016,06,27,00,51,14.80
2016,06,27,00,52,14.80
2016,06,27,00,53,14.80
2016,06,27,00,54,14.80
2016,06,27,00,55,14.80
2016,06,27,00,56,14.80
2016,06,27,00,57,14.80
2016,06,27,00,58,14.80
2016,06,27,00,59,14.80
2016,06,27,01,00,14.80
2016,06,27,01,01,14.80
2016,06,27,01,02,14.80
2016,06,27,01,03,14.80
2016,06,27,01,04,14.80
2016,06,27,01,05,14.80
2016,06,27,01,06,14.80
2016,06,27,01,07,14.80
2016,06,27,01,08,14.90
2016,06,27,01,09,14.90
2016,06,27,01,10,14.90
2016,06,27,01,11,14.90
2016,06,27,01,12,15.00
2016,06,27,01,13,15.00
2016,06,27,01,14,15.00
2016,06,27,01,15,15.00
2016,06,27,01,16,15.00
2016,06,27,01,17,15.00
2016,06,27,01,18,15.00
2016,06,27,01,19,15.00
2016,06,27,01,20,15.00
2016,06,27,01,21,15.00
2016,06,27,01,22,15.00
2016,06,27,01,23,15.00
2016,06,27,01,24,15.00
2016,06,27,01,25,15.10
2016,06,27,01,26,15.10
2016,06,27,01,27,15.10
2016,06,27,01,28,15.20
2016,06,27,01,29,15.20
2016,06,27,01,30,15.20
2016,06,27,01,31,15.20
2016,06,27,01,32,15.30
2016,06,27,01,33,15.30
2016,06,27,01,34,15.30
2016,06,27,01,35,15.30
2016,06,27,01,36,15.30
2016,06,27,01,37,15.30
2016,06,27,01,38,15.30
2016,06,27,01,39,15.40
2016,06,27,01,40,15.40
2016,06,27,01,41,15.40
2016,06,27,01,42,15.40
2016,06,27,01,43,15.40
2016,06,27,01,44,15.30
2016,06,27,01,45,15.30
2016,06,27,01,46,15.30
2016,06,27,01,47,15.30
2016,06,27,01,48,15.30
2016,06,27,01,49,15.30
2016,06,27,01,50,15.30
2016,06,27,01,51,15.30
2016,06,27,01,52,15.30
2016,06,27,01,53,15.30
2016,06,27,01,54,15.30
2016,06,27,01,55,15.30
2016,06,27,01,56,15.30
2016,06,27,01,57,15.30
2016,06,27,01,58,15.30
2016,06,27,01,59,15.30
2016,06,27,02,00,15.30
2016,06,27,02,01,15.30
2016,06,27,02,02,15.30
2016,06,27,02,03,15.20
2016,06,27,02,04,15.20
2016,06,27,02,05,15.20
2016,06,27,02,06,15.20
2016,06,27,02,07,15.20
2016,06,27,02,08,15.20
2016,06,27,02,09,15.20
2016,06,27,02,10,15.20
2016,06,27,02,11,15.20
2016,06,27,02,12,15.20
2016,06,27,02,13,15.10
2016,06,27,02,14,15.10
2016,06,27,02,15,15.10
2016,06,27,02,16,15.10
2016,06,27,02,17,15.10
2016,06,27,02,18,15.10
2016,06,27,02,19,15.10
2016,06,27,02,20,15.10
2016,06,27,02,21,15.10
2016,06,27,02,22,15.10
2016,06,27,02,23,15.10
2016,06,27,02,24,15.10
2016,06,27,02,25,15.00
2016,06,27,02,26,15.00
2016,06,27,02,27,15.00
2016,06,27,02,28,15.00
2016,06,27,02,29,14.90
2016,06,27,02,30,14.90
2016,06,27,02,31,14.90
2016,06,27,02,32,14.90
2016,06,27,02,33,14.90
2016,06,27,02,34,15.00
2016,06,27,02,35,15.00
2016,06,27,02,36,15.10
2016,06,27,02,37,15.10
2016,06,27,02,38,15.10
2016,06,27,02,39,15.20
2016,06,27,02,40,15.20
2016,06,27,02,41,15.20
2016,06,27,02,42,15.20
2016,06,27,02,43,15.20
2016,06,27,02,44,15.20
2016,06,27,02,45,15.20
2016,06,27,02,46,15.20
2016,06,27,02,47,15.20
2016,06,27,02,48,15.20
2016,06,27,02,49,15.20
2016,06,27,02,50,15.20
2016,06,27,02,51,15.30
2016,06,27,02,52,15.30
2016,06,27,02,53,15.30
2016,06,27,02,54,15.30
2016,06,27,02,55,15.30
2016,06,27,02,56,15.30
2016,06,27,02,57,15.30
2016,06,27,02,58,15.30
2016,06,27,02,59,15.30
2016,06,27,03,00,15.30
2016,06,27,03,01,15.30
2016,06,27,03,02,15.20
2016,06,27,03,03,15.20
2016,06,27,03,04,15.20
2016,06,27,03,05,15.20
2016,06,27,03,06,15.10
2016,06,27,03,07,15.10
2016,06,27,03,08,15.10
2016,06,27,03,09,15.00
2016,06,27,03,10,15.00
2016,06,27,03,11,15.00
2016,06,27,03,12,14.90
2016,06,27,03,13,14.90
2016,06,27,03,14,14.90
2016,06,27,03,15,14.90
2016,06,27,03,16,14.80
2016,06,27,03,17,14.80
2016,06,27,03,18,14.80
2016,06,27,03,19,14.80
2016,06,27,03,20,14.80
2016,06,27,03,21,14.80
2016,06,27,03,22,14.70
2016,06,27,03,23,14.70
2016,06,27,03,24,14.70
2016,06,27,03,25,14.70
2016,06,27,03,26,14.60
2016,06,27,03,27,14.60
2016,06,27,03,28,14.60
2016,06,27,03,29,14.60
2016,06,27,03,30,14.50
2016,06,27,03,31,14.50
2016,06,27,03,32,14.50
2016,06,27,03,33,14.50
2016,06,27,03,34,14.40
2016,06,27,03,35,14.40
2016,06,27,03,36,14.40
2016,06,27,03,37,14.40
2016,06,27,03,38,14.40
2016,06,27,03,39,14.40
2016,06,27,03,40,14.30
2016,06,27,03,41,14.30
2016,06,27,03,42,14.30
2016,06,27,03,43,14.30
2016,06,27,03,44,14.30
2016,06,27,03,45,14.30
2016,06,27,03,46,14.30
2016,06,27,03,47,14.30
2016,06,27,03,48,14.30
2016,06,27,03,49,14.30
2016,06,27,03,50,14.30
2016,06,27,03,51,14.30
2016,06,27,03,52,14.20
2016,06,27,03,53,14.20
2016,06,27,03,54,14.20
2016,06,27,03,55,14.20
2016,06,27,03,56,14.20
2016,06,27,03,57,14.20
2016,06,27,03,58,14.20
2016,06,27,03,59,14.20
2016,06,27,04,00,14.20
2016,06,27,04,01,14.20
2016,06,27,04,02,14.20
2016,06,27,04,03,14.20
2016,06,27,04,04,14.20
2016,06,27,04,05,14.20
2016,06,27,04,06,14.20
2016,06,27,04,07,14.20
2016,06,27,04,08,14.20
2016,06,27,04,09,14.20
2016,06,27,04,10,14.20
2016,06,27,04,11,14.20
2016,06,27,04,12,14.20
2016,06,27,04,13,14.20
2016,06,27,04,14,14.20
2016,06,27,04,15,14.20
2016,06,27,04,16,14.20
2016,06,27,04,17,14.20
2016,06,27,04,18,14.20
2016,06,27,04,19,14.20
2016,06,27,04,20,14.20
2016,06,27,04,21,14.20
2016,06,27,04,22,14.20
2016,06,27,04,23,14.20
2016,06,27,04,24,14.20
2016,06,27,04,25,14.20
2016,06,27,04,26,14.20
2016,06,27,04,27,14.10
2016,06,27,04,28,14.10
2016,06,27,04,29,14.10
2016,06,27,04,30,14.10
2016,06,27,04,31,14.00
2016,06,27,04,32,14.00
2016,06,27,04,33,14.00
2016,06,27,04,34,14.00
2016,06,27,04,35,14.00
2016,06,27,04,36,13.90
2016,06,27,04,37,13.90
2016,06,27,04,38,13.90
2016,06,27,04,39,13.80
2016,06,27,04,40,13.80
2016,06,27,04,41,13.80
2016,06,27,04,42,13.80
2016,06,27,04,43,13.80
2016,06,27,04,44,13.80
2016,06,27,04,45,13.70
2016,06,27,04,46,13.70
2016,06,27,04,47,13.70
2016,06,27,04,48,13.70
2016,06,27,04,49,13.70
2016,06,27,04,50,13.70
2016,06,27,04,51,13.70
2016,06,27,04,52,13.70
2016,06,27,04,53,13.70
2016,06,27,04,54,13.70
2016,06,27,04,55,13.60
2016,06,27,04,56,13.60
2016,06,27,04,57,13.60
2016,06,27,04,58,13.60
2016,06,27,04,59,13.60
2016,06,27,05,00,13.60
2016,06,27,05,01,13.60
2016,06,27,05,02,13.60
2016,06,27,05,03,13.50
2016,06,27,05,04,13.50
2016,06,27,05,05,13.50
2016,06,27,05,06,13.50
2016,06,27,05,07,13.50
2016,06,27,05,08,13.50
2016,06,27,05,09,13.50
2016,06,27,05,10,13.50
2016,06,27,05,11,13.50
2016,06,27,05,12,13.50
2016,06,27,05,13,13.50
2016,06,27,05,14,13.50
2016,06,27,05,15,13.50
2016,06,27,05,16,13.50
2016,06,27,05,17,13.50
2016,06,27,05,18,13.50
2016,06,27,05,19,13.50
2016,06,27,05,20,13.50
2016,06,27,05,21,13.60
2016,06,27,05,22,13.60
2016,06,27,05,23,13.70
2016,06,27,05,24,13.70
2016,06,27,05,25,13.70
2016,06,27,05,26,13.70
2016,06,27,05,27,13.70
2016,06,27,05,28,13.70
2016,06,27,05,29,13.70
2016,06,27,05,30,13.70
2016,06,27,05,31,13.70
2016,06,27,05,32,13.70
2016,06,27,05,33,13.70
2016,06,27,05,34,13.70
2016,06,27,05,35,13.70
2016,06,27,05,36,13.70
2016,06,27,05,37,13.70
2016,06,27,05,38,13.70
2016,06,27,05,39,13.70
2016,06,27,05,40,13.70
2016,06,27,05,41,13.70
2016,06,27,05,42,13.70
2016,06,27,05,43,13.70
2016,06,27,05,44,13.70
2016,06,27,05,45,13.70
2016,06,27,05,46,13.80
2016,06,27,05,47,13.80
2016,06,27,05,48,13.80
2016,06,27,05,49,13.80
2016,06,27,05,50,13.80
2016,06,27,05,51,13.90
2016,06,27,05,52,13.90
2016,06,27,05,53,13.90
2016,06,27,05,54,14.00
2016,06,27,05,55,14.00
2016,06,27,05,56,14.00
2016,06,27,05,57,14.00
2016,06,27,05,58,14.10
2016,06,27,05,59,14.10
2016,06,27,06,00,14.20
2016,06,27,06,01,14.20
2016,06,27,06,02,14.20
2016,06,27,06,03,14.20
2016,06,27,06,04,14.20
2016,06,27,06,05,14.20
2016,06,27,06,06,14.20
2016,06,27,06,07,14.30
2016,06,27,06,08,14.30
2016,06,27,06,09,14.30
2016,06,27,06,10,14.40
2016,06,27,06,11,14.40
2016,06,27,06,12,14.50
2016,06,27,06,13,14.50
2016,06,27,06,14,14.50
2016,06,27,06,15,14.60
2016,06,27,06,16,14.60
2016,06,27,06,17,14.60
2016,06,27,06,18,14.70
2016,06,27,06,19,14.70
2016,06,27,06,20,14.70
2016,06,27,06,21,14.70
2016,06,27,06,22,14.80
2016,06,27,06,23,14.80
2016,06,27,06,24,14.80
2016,06,27,06,25,14.80
2016,06,27,06,26,14.80
2016,06,27,06,27,14.80
2016,06,27,06,28,14.80
2016,06,27,06,29,14.80
2016,06,27,06,30,14.90
2016,06,27,06,31,14.90
2016,06,27,06,32,14.90
2016,06,27,06,33,14.90
2016,06,27,06,34,14.90
2016,06,27,06,35,14.90
2016,06,27,06,36,14.90
2016,06,27,06,37,14.90
2016,06,27,06,38,15.00
2016,06,27,06,39,15.00
2016,06,27,06,40,15.00
2016,06,27,06,41,15.00
2016,06,27,06,42,15.00
2016,06,27,06,43,15.00
2016,06,27,06,44,15.00
2016,06,27,06,45,14.90
2016,06,27,06,46,14.90
2016,06,27,06,47,14.90
2016,06,27,06,48,14.90
2016,06,27,06,49,14.90
2016,06,27,06,50,14.90
2016,06,27,06,51,14.90
2016,06,27,06,52,14.90
2016,06,27,06,53,14.90
2016,06,27,06,54,15.00
2016,06,27,06,55,15.00
2016,06,27,06,56,15.00
2016,06,27,06,57,15.00
2016,06,27,06,58,15.00
2016,06,27,06,59,15.10
2016,06,27,07,00,15.10
2016,06,27,07,01,15.10
2016,06,27,07,02,15.20
2016,06,27,07,03,15.20
2016,06,27,07,04,15.20
2016,06,27,07,05,15.20
2016,06,27,07,06,15.20
2016,06,27,07,07,15.20
2016,06,27,07,08,15.30
2016,06,27,07,09,15.30
2016,06,27,07,10,15.30
2016,06,27,07,11,15.30
2016,06,27,07,12,15.30
2016,06,27,07,13,15.30
2016,06,27,07,14,15.30
2016,06,27,07,15,15.30
2016,06,27,07,16,15.30
2016,06,27,07,17,15.30
2016,06,27,07,18,15.20
2016,06,27,07,19,15.20
2016,06,27,07,20,15.30
2016,06,27,07,21,15.20
2016,06,27,07,22,15.20
2016,06,27,07,23,15.20
2016,06,27,07,24,15.20
2016,06,27,07,25,15.20
2016,06,27,07,26,15.20
2016,06,27,07,27,15.20
2016,06,27,07,28,15.10
2016,06,27,07,29,15.10
2016,06,27,07,30,15.00
2016,06,27,07,31,15.00
2016,06,27,07,32,14.90
2016,06,27,07,33,14.90
2016,06,27,07,34,14.90
2016,06,27,07,35,14.80
2016,06,27,07,36,14.90
2016,06,27,07,37,14.90
2016,06,27,07,38,14.90
2016,06,27,07,39,14.90
2016,06,27,07,40,14.90
2016,06,27,07,41,15.00
2016,06,27,07,42,15.00
2016,06,27,07,43,15.10
2016,06,27,07,44,15.10
2016,06,27,07,45,15.20
2016,06,27,07,46,15.20
2016,06,27,07,47,15.30
2016,06,27,07,48,15.30
2016,06,27,07,49,15.40
2016,06,27,07,50,15.50
2016,06,27,07,51,15.70
2016,06,27,07,52,15.80
2016,06,27,07,53,15.90
2016,06,27,07,54,16.10
2016,06,27,07,55,16.20
2016,06,27,07,56,16.30
2016,06,27,07,57,16.50
2016,06,27,07,58,16.60
2016,06,27,07,59,16.70
2016,06,27,08,00,16.70
2016,06,27,08,01,16.80
2016,06,27,08,02,16.80
2016,06,27,08,03,16.80
2016,06,27,08,04,16.90
2016,06,27,08,05,16.90
2016,06,27,08,06,16.90
2016,06,27,08,07,16.90
2016,06,27,08,08,17.00
2016,06,27,08,09,17.00
2016,06,27,08,10,17.00
2016,06,27,08,11,17.00
2016,06,27,08,12,17.00
2016,06,27,08,13,17.10
2016,06,27,08,14,17.20
2016,06,27,08,15,17.30
2016,06,27,08,16,17.40
2016,06,27,08,17,17.50
2016,06,27,08,18,17.60
2016,06,27,08,19,17.70
2016,06,27,08,20,17.90
2016,06,27,08,21,18.00
2016,06,27,08,22,18.10
2016,06,27,08,23,18.10
2016,06,27,08,24,18.20
2016,06,27,08,25,18.20
2016,06,27,08,26,18.20
2016,06,27,08,27,18.10
2016,06,27,08,28,18.00
2016,06,27,08,29,17.90
2016,06,27,08,30,17.90
2016,06,27,08,31,17.90
2016,06,27,08,32,17.90
2016,06,27,08,33,17.90
2016,06,27,08,34,17.90
2016,06,27,08,35,17.90
2016,06,27,08,36,18.00
2016,06,27,08,37,18.10
2016,06,27,08,38,18.10
2016,06,27,08,39,18.20
2016,06,27,08,40,18.20
2016,06,27,08,41,18.20
2016,06,27,08,42,18.20
2016,06,27,08,43,18.30
2016,06,27,08,44,18.30
2016,06,27,08,45,18.30
2016,06,27,08,46,18.40
2016,06,27,08,47,18.40
2016,06,27,08,48,18.50
2016,06,27,08,49,18.60
2016,06,27,08,50,18.70
2016,06,27,08,51,18.90
2016,06,27,08,52,18.90
2016,06,27,08,53,18.90
2016,06,27,08,54,18.90
2016,06,27,08,55,18.90
2016,06,27,08,56,18.90
2016,06,27,08,57,18.90
2016,06,27,08,58,18.90
2016,06,27,08,59,18.90
2016,06,27,09,00,18.90
2016,06,27,09,01,18.90
2016,06,27,09,02,18.90
2016,06,27,09,03,19.00
2016,06,27,09,04,19.10
2016,06,27,09,05,19.10
2016,06,27,09,06,19.10
2016,06,27,09,07,19.20
2016,06,27,09,08,19.30
2016,06,27,09,09,19.30
2016,06,27,09,10,19.40
2016,06,27,09,11,19.40
2016,06,27,09,12,19.40
2016,06,27,09,13,19.40
2016,06,27,09,14,19.40
2016,06,27,09,15,19.40
2016,06,27,09,16,19.40
2016,06,27,09,17,19.40
2016,06,27,09,18,19.50
2016,06,27,09,19,19.50
2016,06,27,09,20,19.40
2016,06,27,09,21,19.40
2016,06,27,09,22,19.30
2016,06,27,09,23,19.20
2016,06,27,09,24,19.20
2016,06,27,09,25,19.10
2016,06,27,09,26,19.00
2016,06,27,09,27,18.90
2016,06,27,09,28,18.90
2016,06,27,09,29,18.80
2016,06,27,09,30,18.80
2016,06,27,09,31,18.90
2016,06,27,09,32,19.00
2016,06,27,09,33,19.10
2016,06,27,09,34,19.10
2016,06,27,09,35,19.10
2016,06,27,09,36,19.10
2016,06,27,09,37,19.00
2016,06,27,09,38,18.90
2016,06,27,09,39,18.90
2016,06,27,09,40,18.90
2016,06,27,09,41,18.90
2016,06,27,09,42,18.90
2016,06,27,09,43,18.90
2016,06,27,09,44,18.90
2016,06,27,09,45,18.90
2016,06,27,09,46,18.90
2016,06,27,09,47,18.90
2016,06,27,09,48,19.10
2016,06,27,09,49,19.10
2016,06,27,09,50,19.20
2016,06,27,09,51,19.20
2016,06,27,09,52,19.30
2016,06,27,09,53,19.30
2016,06,27,09,54,19.30
2016,06,27,09,55,19.30
2016,06,27,09,56,19.40
2016,06,27,09,57,19.40
2016,06,27,09,58,19.40
2016,06,27,09,59,19.50
2016,06,27,10,00,19.50
2016,06,27,10,01,19.60
2016,06,27,10,02,19.60
2016,06,27,10,03,19.70
2016,06,27,10,04,19.80
2016,06,27,10,05,19.90
2016,06,27,10,06,20.10
2016,06,27,10,07,20.20
2016,06,27,10,08,20.40
2016,06,27,10,09,20.40
2016,06,27,10,10,20.40
2016,06,27,10,11,20.40
2016,06,27,10,12,20.40
2016,06,27,10,13,20.50
2016,06,27,10,14,20.50
2016,06,27,10,15,20.60
2016,06,27,10,16,20.60
2016,06,27,10,17,20.50
2016,06,27,10,18,20.40
2016,06,27,10,19,20.40
2016,06,27,10,20,20.40
2016,06,27,10,21,20.40
2016,06,27,10,22,20.50
2016,06,27,10,23,20.50
2016,06,27,10,24,20.50
2016,06,27,10,25,20.50
2016,06,27,10,26,20.50
2016,06,27,10,27,20.50
2016,06,27,10,28,20.50
2016,06,27,10,29,20.40
2016,06,27,10,30,20.40
2016,06,27,10,31,20.50
2016,06,27,10,32,20.50
2016,06,27,10,33,20.50
2016,06,27,10,34,20.60
2016,06,27,10,35,20.60
2016,06,27,10,36,20.60
2016,06,27,10,37,20.70
2016,06,27,10,38,20.80
2016,06,27,10,39,20.90
2016,06,27,10,40,21.00
2016,06,27,10,41,21.00
2016,06,27,10,42,21.10
2016,06,27,10,43,21.10
2016,06,27,10,44,21.10
2016,06,27,10,45,21.10
2016,06,27,10,46,21.10
2016,06,27,10,47,21.10
2016,06,27,10,48,21.10
2016,06,27,10,49,21.10
2016,06,27,10,50,21.10
2016,06,27,10,51,21.10
2016,06,27,10,52,21.20
2016,06,27,10,53,21.20
2016,06,27,10,54,21.20
2016,06,27,10,55,21.20
2016,06,27,10,56,21.20
2016,06,27,10,57,21.20
2016,06,27,10,58,21.20
2016,06,27,10,59,21.10
2016,06,27,11,00,21.10
2016,06,27,11,01,21.10
2016,06,27,11,02,21.10
2016,06,27,11,03,21.10
2016,06,27,11,04,21.00
2016,06,27,11,05,21.10
2016,06,27,11,06,21.20
2016,06,27,11,07,21.30
2016,06,27,11,08,21.30
2016,06,27,11,09,21.50
2016,06,27,11,10,21.60
2016,06,27,11,11,21.70
2016,06,27,11,12,21.60
2016,06,27,11,13,21.50
2016,06,27,11,14,21.40
2016,06,27,11,15,21.40
2016,06,27,11,16,21.50
2016,06,27,11,17,21.60
2016,06,27,11,18,21.70
2016,06,27,11,19,21.60
2016,06,27,11,20,21.50
2016,06,27,11,21,21.40
2016,06,27,11,22,21.50
2016,06,27,11,23,21.60
2016,06,27,11,24,21.60
2016,06,27,11,25,21.60
2016,06,27,11,26,21.60
2016,06,27,11,27,21.70
2016,06,27,11,28,21.70
2016,06,27,11,29,21.60
2016,06,27,11,30,21.50
2016,06,27,11,31,21.30
2016,06,27,11,32,21.40
2016,06,27,11,33,21.50
2016,06,27,11,34,21.60
2016,06,27,11,35,21.60
2016,06,27,11,36,21.60
2016,06,27,11,37,21.60
2016,06,27,11,38,21.60
2016,06,27,11,39,21.60
2016,06,27,11,40,21.70
2016,06,27,11,41,21.90
2016,06,27,11,42,21.90
2016,06,27,11,43,22.00
2016,06,27,11,44,22.10
2016,06,27,11,45,22.20
2016,06,27,11,46,22.10
2016,06,27,11,47,22.00
2016,06,27,11,48,21.90
2016,06,27,11,49,22.00
2016,06,27,11,50,22.00
2016,06,27,11,51,22.00
2016,06,27,11,52,21.90
2016,06,27,11,53,21.80
2016,06,27,11,54,21.70
2016,06,27,11,55,21.60
2016,06,27,11,56,21.60
2016,06,27,11,57,21.60
2016,06,27,11,58,21.60
2016,06,27,11,59,21.60
2016,06,27,12,00,21.60
2016,06,27,12,01,21.70
2016,06,27,12,02,21.80
2016,06,27,12,03,21.80
2016,06,27,12,04,21.70
2016,06,27,12,05,21.60
2016,06,27,12,06,21.60
2016,06,27,12,07,21.60
2016,06,27,12,08,21.60
2016,06,27,12,09,21.80
2016,06,27,12,10,22.00
2016,06,27,12,11,22.10
2016,06,27,12,12,22.20
2016,06,27,12,13,22.30
2016,06,27,12,14,22.50
2016,06,27,12,15,22.50
2016,06,27,12,16,22.50
2016,06,27,12,17,22.40
2016,06,27,12,18,22.40
2016,06,27,12,19,22.30
2016,06,27,12,20,22.10
2016,06,27,12,21,21.90
2016,06,27,12,22,21.80
2016,06,27,12,23,21.90
2016,06,27,12,24,21.80
2016,06,27,12,25,21.70
2016,06,27,12,26,21.60
2016,06,27,12,27,21.50
2016,06,27,12,28,21.40
2016,06,27,12,29,21.50
2016,06,27,12,30,21.60
2016,06,27,12,31,21.70
2016,06,27,12,32,21.80
2016,06,27,12,33,21.80
2016,06,27,12,34,21.90
2016,06,27,12,35,21.70
2016,06,27,12,36,21.60
2016,06,27,12,37,21.60
2016,06,27,12,38,21.60
2016,06,27,12,39,21.70
2016,06,27,12,40,21.90
2016,06,27,12,41,22.00
2016,06,27,12,42,22.10
2016,06,27,12,43,22.20
2016,06,27,12,44,22.20
2016,06,27,12,45,22.20
2016,06,27,12,46,22.00
2016,06,27,12,47,21.90
2016,06,27,12,48,21.70
2016,06,27,12,49,21.60
2016,06,27,12,50,21.50
2016,06,27,12,51,21.40
2016,06,27,12,52,21.50
2016,06,27,12,53,21.60
2016,06,27,12,54,21.60
2016,06,27,12,55,21.60
2016,06,27,12,56,21.40
2016,06,27,12,57,21.30
2016,06,27,12,58,21.20
2016,06,27,12,59,21.20
2016,06,27,13,00,21.30
2016,06,27,13,01,21.30
2016,06,27,13,02,21.30
2016,06,27,13,03,21.30
2016,06,27,13,04,21.50
2016,06,27,13,05,21.60
2016,06,27,13,06,21.80
2016,06,27,13,07,22.00
2016,06,27,13,08,22.10
2016,06,27,13,09,22.20
2016,06,27,13,10,22.20
2016,06,27,13,11,22.20
2016,06,27,13,12,22.20
2016,06,27,13,13,22.00
2016,06,27,13,14,21.90
2016,06,27,13,15,21.70
2016,06,27,13,16,21.70
2016,06,27,13,17,21.60
2016,06,27,13,18,21.60
2016,06,27,13,19,21.60
2016,06,27,13,20,21.60
2016,06,27,13,21,21.60
2016,06,27,13,22,21.60
2016,06,27,13,23,21.60
2016,06,27,13,24,21.60
2016,06,27,13,25,21.60
2016,06,27,13,26,21.60
2016,06,27,13,27,21.60
2016,06,27,13,28,21.60
2016,06,27,13,29,21.50
2016,06,27,13,30,21.40
2016,06,27,13,31,21.40
2016,06,27,13,32,21.40
2016,06,27,13,33,21.40
2016,06,27,13,34,21.40
2016,06,27,13,35,21.30
2016,06,27,13,36,21.30
2016,06,27,13,37,21.40
2016,06,27,13,38,21.40
2016,06,27,13,39,21.50
2016,06,27,13,40,21.60
2016,06,27,13,41,21.60
2016,06,27,13,42,21.60
2016,06,27,13,43,21.50
2016,06,27,13,44,21.30
2016,06,27,13,45,21.30
2016,06,27,13,46,21.10
2016,06,27,13,47,21.00
2016,06,27,13,48,20.80
2016,06,27,13,49,20.80
2016,06,27,13,50,20.80
2016,06,27,13,51,21.00
2016,06,27,13,52,21.00
2016,06,27,13,53,21.10
2016,06,27,13,54,21.20
2016,06,27,13,55,21.10
2016,06,27,13,56,21.10
2016,06,27,13,57,21.20
2016,06,27,13,58,21.00
2016,06,27,13,59,21.00
2016,06,27,14,00,20.90
2016,06,27,14,01,20.70
2016,06,27,14,02,20.60
2016,06,27,14,03,20.50
2016,06,27,14,04,20.30
2016,06,27,14,05,20.20
2016,06,27,14,06,20.10
2016,06,27,14,07,20.10
2016,06,27,14,08,20.10
2016,06,27,14,09,20.30
2016,06,27,14,10,20.40
2016,06,27,14,11,20.70
2016,06,27,14,12,21.00
2016,06,27,14,13,21.20
2016,06,27,14,14,21.50
2016,06,27,14,15,21.60
2016,06,27,14,16,21.40
2016,06,27,14,17,21.20
2016,06,27,14,18,20.90
2016,06,27,14,19,20.70
2016,06,27,14,20,20.60
2016,06,27,14,21,20.60
2016,06,27,14,22,20.80
2016,06,27,14,23,20.90
2016,06,27,14,24,21.00
2016,06,27,14,25,21.00
2016,06,27,14,26,20.90
2016,06,27,14,27,20.80
2016,06,27,14,28,20.60
2016,06,27,14,29,20.50
2016,06,27,14,30,20.30
2016,06,27,14,31,20.10
2016,06,27,14,32,20.00
2016,06,27,14,33,19.90
2016,06,27,14,34,19.90
2016,06,27,14,35,19.90
2016,06,27,14,36,20.10
2016,06,27,14,37,20.10
2016,06,27,14,38,20.20
2016,06,27,14,39,20.20
2016,06,27,14,40,20.20
2016,06,27,14,41,20.20
2016,06,27,14,42,20.20
2016,06,27,14,43,20.30
2016,06,27,14,44,20.20
2016,06,27,14,45,20.40
2016,06,27,14,46,20.50
2016,06,27,14,47,20.60
2016,06,27,14,48,20.80
2016,06,27,14,49,20.90
2016,06,27,14,50,21.00
2016,06,27,14,51,21.00
2016,06,27,14,52,20.80
2016,06,27,14,53,20.60
2016,06,27,14,54,20.40
2016,06,27,14,55,20.20
2016,06,27,14,56,20.00
2016,06,27,14,57,20.00
2016,06,27,14,58,20.10
2016,06,27,14,59,20.20
2016,06,27,15,00,20.20
2016,06,27,15,01,20.30
2016,06,27,15,02,20.40
2016,06,27,15,03,20.60
2016,06,27,15,04,20.70
2016,06,27,15,05,20.80
2016,06,27,15,06,21.00
2016,06,27,15,07,21.20
2016,06,27,15,08,21.50
2016,06,27,15,09,21.60
2016,06,27,15,10,21.60
2016,06,27,15,11,21.70
2016,06,27,15,12,21.70
2016,06,27,15,13,21.90
2016,06,27,15,14,22.10
2016,06,27,15,15,22.20
2016,06,27,15,16,22.20
2016,06,27,15,17,22.20
2016,06,27,15,18,22.20
2016,06,27,15,19,22.00
2016,06,27,15,20,21.90
2016,06,27,15,21,21.90
2016,06,27,15,22,21.80
2016,06,27,15,23,21.70
2016,06,27,15,24,21.60
2016,06,27,15,25,21.60
2016,06,27,15,26,21.50
2016,06,27,15,27,21.40
2016,06,27,15,28,21.30
2016,06,27,15,29,21.10
2016,06,27,15,30,20.90
2016,06,27,15,31,20.70
2016,06,27,15,32,20.60
2016,06,27,15,33,20.50
2016,06,27,15,34,20.50
2016,06,27,15,35,20.40
2016,06,27,15,36,20.40
2016,06,27,15,37,20.30
2016,06,27,15,38,20.30
2016,06,27,15,39,20.20
2016,06,27,15,40,20.10
2016,06,27,15,41,19.80
2016,06,27,15,42,19.50
2016,06,27,15,43,19.10
2016,06,27,15,44,18.90
2016,06,27,15,45,18.60
2016,06,27,15,46,18.50
2016,06,27,15,47,18.40
2016,06,27,15,48,18.40
2016,06,27,15,49,18.30
2016,06,27,15,50,18.20
2016,06,27,15,51,18.20
2016,06,27,15,52,18.20
2016,06,27,15,53,18.20
2016,06,27,15,54,18.40
2016,06,27,15,55,18.40
2016,06,27,15,56,18.50
2016,06,27,15,57,18.60
2016,06,27,15,58,18.70
2016,06,27,15,59,18.80
2016,06,27,16,00,18.90
2016,06,27,16,01,18.90
2016,06,27,16,02,19.00
2016,06,27,16,03,19.10
2016,06,27,16,04,19.00
2016,06,27,16,05,18.90
2016,06,27,16,06,18.80
2016,06,27,16,07,18.70
2016,06,27,16,08,18.70
2016,06,27,16,09,18.70
2016,06,27,16,10,18.70
2016,06,27,16,11,18.90
2016,06,27,16,12,19.20
2016,06,27,16,13,19.60
2016,06,27,16,14,20.00
2016,06,27,16,15,20.40
2016,06,27,16,16,20.80
2016,06,27,16,17,21.20
2016,06,27,16,18,21.60
2016,06,27,16,19,21.90
2016,06,27,16,20,22.10
2016,06,27,16,21,22.30
2016,06,27,16,22,22.50
2016,06,27,16,23,22.70
2016,06,27,16,24,22.90
2016,06,27,16,25,23.00
2016,06,27,16,26,23.30
2016,06,27,16,27,23.50
2016,06,27,16,28,23.70
2016,06,27,16,29,23.80
2016,06,27,16,30,24.00
2016,06,27,16,31,24.10
2016,06,27,16,32,24.30
2016,06,27,16,33,24.50
2016,06,27,16,34,24.50
2016,06,27,16,35,24.60
2016,06,27,16,36,24.60
2016,06,27,16,37,24.70
2016,06,27,16,38,24.70
2016,06,27,16,39,24.80
2016,06,27,16,40,24.90
2016,06,27,16,41,25.00
2016,06,27,16,42,25.10
2016,06,27,16,43,25.20
2016,06,27,16,44,25.30
2016,06,27,16,45,25.40
2016,06,27,16,46,25.40
2016,06,27,16,47,25.40
2016,06,27,16,48,25.40
2016,06,27,16,49,25.50
2016,06,27,16,50,25.60
2016,06,27,16,51,25.70
2016,06,27,16,52,25.70
2016,06,27,16,53,25.60
2016,06,27,16,54,25.60
2016,06,27,16,55,25.60
2016,06,27,16,56,25.50
2016,06,27,16,57,25.50
2016,06,27,16,58,25.50
2016,06,27,16,59,25.60
2016,06,27,17,00,25.70
2016,06,27,17,01,25.80
2016,06,27,17,02,25.80
2016,06,27,17,03,25.80
2016,06,27,17,04,25.90
2016,06,27,17,05,25.90
2016,06,27,17,06,25.80
2016,06,27,17,07,25.80
2016,06,27,17,08,25.70
2016,06,27,17,09,25.60
2016,06,27,17,10,25.60
2016,06,27,17,11,25.60
2016,06,27,17,12,25.50
2016,06,27,17,13,25.40
2016,06,27,17,14,25.40
2016,06,27,17,15,25.30
2016,06,27,17,16,25.20
2016,06,27,17,17,25.20
2016,06,27,17,18,25.30
2016,06,27,17,19,25.30